Miscellaneous Local Product
Issued by NWS Hastings, NE

Home | Current Version | Previous Version | Graphics & Text | Print | Product List | Glossary On
Versions: 1 2 3 4 5 6 7 8 9 10 11 12 13 14 15 16 17 18 19 20 21 22 23 24 25 26 27 28 29 30 31 32 33 34 35 36 37 38 39 40 41 42 43 44 45 46 47 48 49 50
000
AXUS43 KGID 201402
MISGRI

GID CWA HOURLY WEATHER ROUNDUP
NATIONAL WEATHER SERVICE HASTINGS NE
800 AM CST THU NOV 20 2014

NOTE: "FAIR" INDICATES FEW OR NO CLOUDS BELOW 12,000 FEET WITH NO
SIGNIFICANT WEATHER AND/OR OBSTRUCTIONS TO VISIBILITY.

...SOUTH CENTRAL NEBRASKA...

CITY           SKY/WX    TMP DP  RH WIND       PRES   REMARKS
GRAND ISLAND   CLEAR     12   8  84 N5        30.17R WCI   4
HASTINGS       MOCLDY    19  13  77 SE5       30.14R WCI  12
KEARNEY        MOCLDY    14  10  85 SE6       30.14R WCI   5
ORD            PTCLDY     7   3  84 SW3       30.14R
YORK           PTCLDY     9   5  85 W5        30.18R WCI   0
AURORA         PTCLDY    12   9  89 CALM      30.16S
LEXINGTON      PTCLDY    10   8  89 SE3       30.10R
HOLDREGE       PTCLDY    16  13  88 CALM      30.12R
HEBRON         PTCLDY    14  11  87 CALM      30.18R

...NEBRASKA PANHANDLE...

CITY           SKY/WX    TMP DP  RH WIND       PRES   REMARKS
CHADRON        PTCLDY     6   3  87 W6        30.02R WCI  -4
ALLIANCE       PTCLDY    10   7  87 SW5       30.00R WCI   2
SCOTTSBLUFF    PTCLDY    13  10  88 W3        30.01R
SIDNEY         CLEAR     14  10  84 W9        30.00S WCI   2

...WESTERN AND NORTH CENTRAL NEBRASKA...

CITY           SKY/WX    TMP DP  RH WIND       PRES   REMARKS
VALENTINE      CLOUDY    17  14  88 CALM      30.08R
AINSWORTH      CLOUDY    14  12  92 E3        30.08S
ONEILL         CLOUDY    18  16  95 CALM      30.14R
BROKEN BOW     PTCLDY     8   4  83 CALM      30.09S
IMPERIAL       PTCLDY    17  12  80 NW6       30.04R WCI   9
NORTH PLATTE   MOCLDY     7   4  87 CALM      30.07R
MCCOOK         PTCLDY    10   7  87 W7        30.07R WCI  -1

...EASTERN NEBRASKA...

CITY           SKY/WX    TMP DP  RH WIND       PRES   REMARKS
NORFOLK        CLOUDY    15  12  88 W6        30.17R WCI   6
SO SIOUX CITY  MOCLDY    18  12  77 NW7       30.20R WCI   9
TEKAMAH        MOCLDY    15   9  76 W8        30.21R WCI   4
COLUMBUS       PTCLDY     7   0  72 CALM      30.20R
ALBION         CLOUDY     7   2  82 CALM      30.17R
OMAHA EPPLEY   PTCLDY    16  13  88 E3        30.23R
OFFUTT AFB     CLEAR     15  10  82 W2        30.21R
MILLARD        PTCLDY    13  10  87 CALM      30.21R
LINCOLN        PTCLDY    10   5  80 CALM      30.22R
NEBRASKA CITY  CLEAR     17  11  78 NW6       30.20S WCI   8
BEATRICE       PTCLDY    12   9  87 CALM      30.20R
FALLS CITY     CLEAR     15  12  88 SW5       30.22R WCI   8

...NORTHERN KANSAS...

CITY           SKY/WX    TMP DP  RH WIND       PRES   REMARKS
GOODLAND       CLEAR     18  14  84 NW8       30.02R WCI   8
HILL CITY      PTCLDY    15  11  83 CALM      30.10S
NORTON         SUNNY     16  10  79 NW3       30.08R
PHILLIPSBURG   CLEAR     18  16  93 E7        30.11S WCI   8
BELOIT         CLEAR     16  12  86 CALM      30.18R
HAYS           MOCLDY    19  10  68 E6        30.12R WCI  11
RUSSELL        PTCLDY    20  15  81 S7        30.12S WCI  11
CONCORDIA      PTCLDY    18  13  80 E5        30.17R WCI  11
SALINA         CLEAR     19  12  74 S3        30.20R
TOPEKA         CLEAR     17  12  80 CALM      30.23S



USA.gov is the U.S. government's official web portal to all federal, state and local government web resources and services.